Flag for Spain Weather past 2 weeks in Alicante, Spain

Now
86 °F

Sunny.


Feels Like: 87 °F
Forecast: 74 / 99 °F
Wind: 12 mph from East

Location: Alicante / El Altet

Current Time: Jul 6, 2015 at 8:10:11 PM

Latest Report: Jul 6, 2015 at 7:30 PM


Visibility: 10 mi

Pressure: 30.04 "Hg

Humidity: 46%

Dew point: 63 °F

Location of AlicanteLocation

Historic Weather in Alicante — Graph

°F

Alicante temperature yesterday

Maximum temperature yesterday: 90 °F (at 2:00 PM)
Minimum temperature yesterday: 72 °F (at 6:30 AM)
Average temperature yesterday: 82 °F

Past Weeks' High & Low Weather Summary

 TemperatureHumidityPressure
High99 °F (Jun 28, 1:00 PM)89% (Jul 3, 3:00 AM)30.21 "Hg (Jul 3, 3:00 AM)
Low66 °F (Jun 22, 6:00 AM)10% (Jun 28, 2:00 PM)29.80 "Hg (Jun 23, 7:30 PM)
Average81 °F50%30.06 "Hg
* Reported Jun 21 8:30 PM — Jul 6 7:00 PM, Alicante, Weather by CustomWeather, © 2015

Note: Actual official high and low records may vary slightly from our data, if they occured in-between our weather recording intervals... More about our weather records

Advertising

Alicante weather history for previous 24 hours

 ConditionsComfort  
Time TempWeatherWind HumidityBarometerVisibility
7:00 PM
Mon, Jul 6
88 °FSunny.10 mph38%30.04 "Hg10 mi
6:30 PM88 °FSunny.12 mph33%30.04 "Hg10 mi
6:00 PM90 °FSunny.13 mph36%30.07 "Hg10 mi
5:30 PM88 °FPassing clouds.13 mph46%30.07 "HgN/A
5:00 PM88 °FSunny.13 mph49%30.07 "Hg10 mi
4:30 PM90 °FSunny.14 mph41%30.07 "Hg10 mi
4:00 PM90 °FSunny.14 mph41%30.07 "Hg10 mi
3:30 PM91 °FPassing clouds.13 mph34%30.07 "HgN/A
3:00 PM90 °FPassing clouds.14 mph36%30.07 "HgN/A
2:30 PM91 °FSunny.13 mph32%30.09 "Hg10 mi
2:00 PM91 °FSunny.13 mph36%30.07 "Hg10 mi
1:30 PM90 °FPassing clouds.12 mph43%30.09 "HgN/A
1:00 PM88 °FPassing clouds.9 mph46%30.09 "HgN/A
12:30 PM88 °FPassing clouds.10 mph52%30.09 "HgN/A
12:00 PM88 °FPassing clouds.9 mph49%30.09 "HgN/A
11:30 AM88 °FPassing clouds.7 mph49%30.09 "HgN/A
11:00 AM86 °FPassing clouds.9 mph52%30.09 "HgN/A
10:30 AM88 °FPassing clouds.8 mph43%30.09 "HgN/A
10:00 AM86 °FPassing clouds.7 mph38%30.07 "HgN/A
9:30 AM88 °FSunny.2 mph25%30.07 "Hg10 mi
9:00 AM88 °FSunny.No wind27%30.07 "Hg10 mi
8:30 AM84 °FSunny.No wind35%30.07 "Hg10 mi
8:00 AM77 °FSunny.No wind44%30.07 "Hg10 mi
7:30 AM77 °FClear.No wind42%30.07 "Hg10 mi
7:00 AM79 °FClear.1 mph37%30.07 "Hg10 mi
6:30 AM75 °FClear.No wind41%30.04 "Hg10 mi
6:00 AM79 °FClear.1 mph37%30.04 "Hg10 mi
5:30 AM77 °FClear.No wind42%30.04 "Hg10 mi
5:00 AM79 °FClear.No wind39%30.07 "Hg10 mi
4:30 AM75 °FClear.3 mph47%30.07 "Hg10 mi
4:00 AM77 °FClear.No wind47%30.07 "Hg10 mi
3:30 AM79 °FClear.No wind51%30.07 "Hg10 mi
3:00 AM77 °FClear.1 mph57%30.07 "Hg10 mi
2:30 AM79 °FClear.No wind61%30.07 "Hg10 mi
2:00 AM79 °FClear.No wind65%30.07 "Hg10 mi
1:30 AM79 °FClear.No wind70%30.09 "Hg10 mi
1:00 AM79 °FClear.3 mph70%30.09 "Hg10 mi
12:30 AM79 °FPassing clouds.3 mph70%30.09 "HgN/A
12:00 AM79 °FClear.2 mph74%30.07 "Hg10 mi
11:30 PM
Sun, Jul 5
81 °FClear.2 mph70%30.07 "Hg10 mi
11:00 PM81 °FClear.5 mph70%30.07 "Hg10 mi
10:30 PM81 °FClear.8 mph70%30.04 "Hg10 mi
10:00 PM81 °FSunny.7 mph74%30.04 "Hg10 mi
9:30 PM81 °FPassing clouds.9 mph74%30.04 "HgN/A
9:00 PM81 °FPassing clouds.9 mph79%30.04 "HgN/A
8:30 PM82 °FPassing clouds.10 mph74%30.04 "HgN/A
8:00 PM82 °FPassing clouds.13 mph70%30.04 "HgN/A
Weather by CustomWeather, © 2015

See weather overviewHow to use our weather pages